sat.trackr.live / text

‹ back to catalog

STARLINK-38093

NORAD 69980 · 2026-159F

PAYLOAD ACTIVE UNKNOWN

§ Identity

Operator
Country
US
Launch date
2026-07-11
Launch site
AFWTR
Launch vehicle
Mass (kg)
RCS (m²)

Purposes: comms

External: N2YO · Heavens-Above · Gunter

§ Orbital elements

Epoch: 2026-09-20T04:00:03.000096Z

Period
93.47 min
Inclination
97.2864°
Eccentricity
0.0001801
Mean motion
15.40617218 rev/d
Perigee alt
443.1 km
Apogee alt
445.5 km
Semi-major
6,822.4 km
B*
-7.7643e-2
RAAN
105.1188°
Arg perigee
66.4977°
Mean anomaly
305.8315°
Rev number
599

§ Raw data

STARLINK-380931 69980U 26159F   26263.16670139 -.02809629  00000+0 -77643-1 0  99922 69980  97.2864 105.1188 0001801  66.4977 305.8315 15.40617218  5996

JSON: /api/v1/satellites/69980 · /tle

For live sub-satellite position, see the globe view (requires WebGL).

§ Visibility from observer

Set your observer location to see the next 7 days of passes ≥ 10°. The values pass through the URL so the page stays shareable.

No JS? Fill the form by hand. The geolocation button needs JavaScript.